www.pogodaiklimat.ru

Погода и климат >> Архив погоды >> Гондурас >> La Esperanza


ПОГОДА в La Esperanza

  • Прогноз погоды в La Esperanza
  • Монитор погоды в La Esperanza
  • Климат города

АРХИВ ПОГОДЫ в La Esperanza

Время (UTC), дата Ветер
(напр.,м/с)
 
Видим.   Явления Облачность Т
(С)
Тd
(С)
f
(%)
Тe
(С)
Тes
(С)
Комфортность P
(гПа)
Po
(гПа)
Тmin
(С)
Tmax
(С)
R
(мм)
R24
(мм)
S
(см)
15 5.12 СВ 2 20 км 1/1 720 м
[Cu hum]
+17.0 +13.6 80 +17 +23 1014.0 837.8
18 5.12 С 2 20 км 1/1 720 м
[Cu hum Ci fib]
+20.8 +13.9 65 +24 +37 комфорт 1013.3 837.3 +14.5 +20.8
21 5.12 С 2 20 км 4/4 720 м
[Cu hum]
+21.2 +14.0 63 +24 +27 комфорт 1010.9 835.8
00 6.12 С 1 20 км 8/1 720 м
[Cu hum Ac trans Ci fib]
+16.4 +14.3 87 +17 +17 1016.0 803.5 +14.5 +21.5
12 6.12 СВ 2 10 км 3/3 540 м
[Sc diur, vesp]
+15.2 +14.6 96 +15 +15 1012.5 835.3 +13.0 +21.5
15 6.12 СВ 2 10 км 9/9 540 м
[Sc diur, vesp]
+16.8 +15.2 90 +17 +18 1014.8 837.1
18 6.12 СВ 2 20 км 8/8 600 м
[Cu hum Ac trans]
+18.6 +15.0 80 +20 +23 1014.9 837.2 +13.0 +18.6
21 6.12 СВ 2 20 км 4/1 660 м
[Cu hum Ci fib]
+20.5 +14.9 70 +24 +29 комфорт 1010.6 834.8
00 7.12 СВ 2 10 км 9/9 540 м
[Sc diur, vesp Ci fib]
+17.6 +15.5 87 +18 +18 1012.6 835.3 +13.0 +21.0
12 7.12 СВ 1 7000 м 9/9 420 м
[Sc diur, vesp]
+15.6 +15.2 97 +16 +16 1012.0 835.4 +15.4 +21.0
15 7.12 СВ 1 10 км 5/5 540 м
[Cu hum Ac trans]
+17.4 +14.5 83 +18 +22 1013.6 836.8
18 7.12 СВ 2 10 км 5/5 660 м
[Cu hum]
+20.4 +14.8 70 +24 +31 комфорт 1011.6 835.6 +15.4 +20.4
21 7.12 СВ 2 10 км 9/8 600 м
[Cb cap Ac cuf Ci ing]
+18.6 +15.5 82 +20 +21 1010.4 834.0
00 8.12 СВ 2 10 км осадки на расстоянии {дождь} 9/6 300 м
[Cb cap Ac cuf Ci ing]
+16.4 +15.4 94 +16 +16 1011.3 834.2 +15.4 +21.7 0.4
12 8.12 штиль 0 <100 м туман ?/? +11.6 +12.6 100 +11 +11 1012.9 834.5 +11.6 +21.7
15 8.12 штиль 0 20 км 4/1 660 м
[Cu hum Ac trans Ci fib]
+18.4 +15.3 82 +19 +26 1012.2 835.6
18 8.12 З 1 20 км 8/8 660 м
[Cu med, cong Ci fib]
+22.1 +13.9 60 +25 +28 комфорт 1010.6 834.8 +11.6 +22.8
21 8.12 штиль 0 20 км 8/8 660 м
[Cb cap Ci ing]
+21.8 +16.0 70 +26 +27 душно 1007.9 832.6
00 9.12 штиль 0 10 км гроза без осадков {дождь} 9/8 300 м
[Cb cap Ac cuf Ci ing]
+15.0 +14.5 97 +15 +15 1012.5 833.7 +11.6 +24.0 64
12 9.12 СВ 2 15 км осадки на расстоянии 9/9 600 м
[Sc]
+15.4 +13.7 90 +15 +15 1013.8 835.9 +14.4 +24.0 0.2
15 9.12 СВ 5 6000 м осадки на расстоянии 10/10 540 м
[Sc]
+14.4 +13.2 92 +13 +13 1016.8 837.8
18 9.12 С 9 8000 м осадки на расстоянии 9/9 600 м
[Sc diur, vesp]
+16.1 +13.2 83 +14 +14 1016.2 837.8 +14.4 +16.1
21 9.12 С 5 10 км осадки на расстоянии 8/8 600 м
[Sc diur, vesp As op Ci fib]
+15.6 +11.8 78 +14 +15 1016.0 836.4
00 10.12 СВ 7 8000 м осадки на расстоянии 9/9 600 м
[Sc diur, vesp Ci fib]
+12.1 +10.5 90 +9 +9 1016.1 838.1 +12.1 +16.9
03 10.12 СВ 7 8000 м осадки на расстоянии 9/9 600 м
[Sc diur, vesp Ci fib]
+12.1 +10.5 90 +9 +9 1016.1 838.1 +12.1 +16.9
12 10.12 СВ 11 8000 м слабая морось 10/10 600 м
[Sc]
+9.5 +7.9 90 +4 +4 1017.9 838.4 +9.3 +16.9 0.0
15 10.12 СВ 9 5000 м слабая морось 10/10 480 м
[Sc]
+3.8 +7.5 100 -3 -3 840.5 0.0
18 10.12 СВ 9 10 км {морось} 9/9 600 м
[Sc diur, vesp]
+9.9 +6.1 77 +6 +6 1022.6 840.2 +8.0 +9.9 0.0
21 10.12 СВ 8 15 км 9/9 600 м
[Sc diur, vesp Ci fib]
+10.4 +6.3 76 +7 +7 1020.6 838.6
00 11.12 СВ 8 15 км 8/5 600 м
[Sc diur, vesp Ci fib]
+8.2 +5.0 80 +4 +4 1022.0 839.1 +8.0 +10.9
03 11.12 СВ 8 15 км 8/5 600 м
[Sc diur, vesp Ci fib]
+8.2 +5.0 80 +4 +4 1022.0 839.1 +8.0 +10.9
12 11.12 СВ 8 5000 м осадки на расстоянии 9/9 540 м
[Sc]
+10.0 +6.8 80 +6 +6 1022.8 839.2 +7.5 +10.9
15 11.12 СВ 6 10 км 9/9 600 м
[Sc diur, vesp Ci fib]
+10.6 +7.5 81 +7 +8 1024.7 841.4
21 11.12 СВ 6 5000 м 9/9 540 м
[Sc diur, vesp Ac trans Ci fib]
+12.2 +9.5 84 +9 +10 1018.9 837.1

 

Местоположение метеостанции La Esperanza (Гондурас): широта 14.32 долгота -88.16 высота над уровнем моря 1674 м.

В архиве по умолчанию представлена погода в La Esperanza за последнюю неделю. Архивные данные за месяц целиком и за предыдущие месяцы, начиная с января 2011 года, Вы можете получить, выбрав интересующий диапазон дат из раскрывающегося списка и нажав кнопку "Ввод!".

Внимание! Время в таблицах - всемирное. Для получения местного времени необходимо прибавить поправку, которая в La Esperanza равна -6 ч.

Смотрите также архив погоды в соседних городах и на ближайших метеорологических станциях:

Погода в Santa Rosa De Copan (Гондурас) (84 км)
Погода в Tegucigalpa (Гондурас) (107 км)
Погода в Nueva Ocotepeque (Гондурас) (111 км)
Погода в La Mesa (Гондурас) (128 км)
Погода в Amapala (Гондурас) (129 км)
Погода в Yoro (Гондурас) (147 км)
Погода в Choluteca (Гондурас) (155 км)
Погода в Puerto Barrios (Гватемала) (163 км)
Погода в Tela (Гондурас) (172 км)
Погода в La Ceiba (Гондурас) (210 км)

Пояснения к столбцам:

Ветер - указаны скорость ветра в м/с - средняя за 10 мин, порывы в срок и между сроками (в фигурных скобках) и направление, откуда дует ветер: С - северный, СВ - северо-восточный, В - восточный, ЮВ - юго-восточный, Ю - южный, ЮЗ - юго-западный, З - западный, СЗ - северо-западный.
Видимость - горизонтальная дальность видимости в метрах или километрах. При видимости от 1 до 10 км при отсутствии осадков обычно наблюдается дымка, при ухудшении видимости до 1 км и менее - туман. В сухую погоду видимость может ухудшаться дымом, пылью или мглою.
Явления - указаны атмосферные явления, наблюдавшиеся в срок или в последний час перед сроком; фигурными скобками обозначены явления, наблюдавшиеся между сроками (за 1-3 часа до срока); квадратными скобками обозначены град или гололедные отложения с указанием их диаметра в мм.
Облачность - указаны через наклонную черту общая и нижняя облачность в баллах и высота нижней границы облаков в метрах; квадратными скобками обозначены формы облаков: Ci - перистые, Cs - перисто-слоистые, Cc - перисто-кучевые, Ac - высококучевые, As - высокослоистые, Sc - слоисто-кучевые, Ns - слоисто-дождевые, Cu - кучевые, Cb - кучево-дождевые. Подробнее классификацию облаков см. в Атласе облаков (PDF).
T - Температура воздуха - температура, измеренная на высоте 2 м над землей.
Td - Температура точки росы - температура, при понижении до которой содержащийся в воздухе водяной пар достигнет насыщения.
f - Относительная влажность воздуха - влажноcть воздуха, измеренная на высоте 2 м над землей.
Te - Эффективная температура - температура, которую ощущает одетый по сезону человек в тени. Характеристика душности погоды. При расчете учитывается влияние влажности воздуха и скорости ветра на теплоощущения человека.
Tes - Эффективная температура на солнце - температура, которую ощущает человек, с поправкой на солнечный нагрев. Характеристика знойности погоды. Зависит от высоты солнца над горизонтом, облачности и скорости ветра. Ночью, в пасмурную погоду, а также при ветре 12 м/с и более поправка равна нулю.
P - Атмосферное давление - приведенное к уровню моря атмосферное давление.
Po - Атмосферное давление - измеренное на уровне метеостанции атмосферное давление.
Tmin - Минимальная температура - минимум температуры воздуха на высоте 2 м над землей.
Tmax - Максимальная температура - максимум температуры воздуха на высоте 2 м над землей.
R - Количество осадков - Количество выпавших осадков за период времени, мм. При наведении курсора мыши на число - период времени, за который выпало указанное количество осадков.
R24 - Количество осадков - Количество выпавших осадков за 24 часа, мм.
S - Снежный покров - Высота снежного покрова, см. При наведении курсора мыши на число - состояние снежного покрова и степень покрытия местности в баллах.